CAPE
0 0 0 0 0 0 0 0 0 0 0 0 0 0 0 0 0 0 0 0 1 4 11 18 20 19 18 19 19 17 17 17 18 15 14 9 15 16 13 12 11 13 18
0 0 0 0 0 0 0 0 0 0 0 0 0 0 0 0 0 0 0 0 0 0 4 10 11 14 15 21 21 19 17 16 20 27 24 28 28 29 25 22 25 27 28
0 0 0 0 0 0 0 0 0 0 0 0 0 0 0 0 0 0 0 0 0 0 0 4 5 9 9 14 14 20 19 15 12 11 15 14 16 17 16 20 20 21 26
0 0 0 0 0 0 0 0 0 0 0 0 0 0 0 0 0 0 0 0 0 0 0 0 0 1 5 11 14 18 18 17 17 20 26 28 22 19 13 14 19 23 20
0 0 0 0 0 0 0 0 0 0 0 0 0 0 0 0 0 0 0 0 0 0 0 0 0 0 2 5 10 13 16 16 17 22 22 16 14 14 17 20 18 21 20
0 0 0 0 0 0 0 0 0 0 0 0 0 0 0 0 0 0 0 0 0 0 0 0 0 0 0 0 7 12 16 19 20 23 11 10 12 22 13 21 16 19 28
0 0 0 0 0 0 0 0 0 0 0 0 0 0 0 0 0 0 0 0 0 0 0 0 0 0 0 0 0 4 8 14 18 18 14 10 17 18 24 24 34 37 47
0 0 0 0 0 0 0 0 0 0 0 0 0 0 0 0 0 0 0 0 0 0 0 0 0 0 0 0 0 0 3 8 16 17 15 22 18 21 28 26 44 25 59
0 0 0 0 0 0 0 0 0 0 0 0 0 0 0 0 0 0 0 0 0 0 0 0 0 0 0 0 0 0 1 3 11 17 22 13 17 35 31 48 39 49 59
0 0 0 0 0 0 0 0 0 0 0 0 0 0 0 0 0 0 0 0 0 0 0 0 0 0 0 0 0 1 0 0 6 10 13 21 23 27 23 45 47 44 42
0 0 0 0 0 0 0 0 0 0 0 0 0 0 0 0 0 0 0 0 0 0 0 0 0 0 0 0 0 0 0 0 4 10 10 11 16 23 38 32 48 58 38
0 0 0 0 0 0 0 0 0 0 0 0 0 0 0 0 0 0 0 0 0 0 0 0 0 0 0 0 0 0 1 1 3 15 13 15 21 15 44 46 56 46 30
0 0 0 0 0 0 0 0 0 0 0 0 0 0 0 0 0 0 0 0 0 0 0 0 0 0 0 0 0 0 0 1 0 4 15 23 24 33 39 41 38 34 23
0 0 0 0 0 0 0 0 0 0 0 0 0 0 0 0 0 0 0 0 0 0 0 0 0 0 0 0 0 0 0 0 0 2 5 24 28 32 11 16 23 22 33
0 0 0 0 0 0 0 0 0 0 0 0 0 0 0 0 0 0 0 0 0 0 0 0 0 0 0 0 0 0 0 0 0 6 10 9 27 17 17 13 10 16 21
0 0 0 0 0 0 0 0 0 0 0 0 0 0 0 0 0 0 0 0 0 0 0 0 0 0 0 0 0 0 0 0 0 10 17 5 12 16 14 11 12 12 31
0 0 0 0 0 0 0 0 0 0 0 0 0 0 0 0 0 0 0 0 0 0 0 0 0 0 0 0 0 0 0 0 0 9 7 3 6 14 10 18 21 24 26
0 0 0 0 0 0 0 0 0 0 0 0 0 0 0 0 0 0 0 0 0 0 0 0 0 0 0 0 0 0 0 0 0 6 2 0 17 17 11 15 16 20 20
0 0 0 0 0 0 0 0 0 0 0 0 0 0 0 0 0 0 0 0 0 0 0 0 0 0 0 0 0 0 0 0 0 4 4 0 0 10 10 9 15 17 22
0 0 0 0 0 0 0 0 0 0 0 0 0 0 0 0 0 0 0 0 0 0 0 0 0 0 0 0 0 0 0 0 0 1 0 0 0 0 3 5 15 19 17
0 0 0 0 0 0 0 0 0 0 0 0 0 0 0 0 0 0 0 0 0 0 0 0 0 0 0 0 0 0 0 1 0 0 0 0 0 0 0 0 4 5 7
0 0 0 0 0 0 0 0 0 0 0 0 0 0 0 0 0 0 0 0 0 0 0 0 0 0 0 0 0 0 0 0 0 0 0 0 0 0 0 6 10 6 2
0 0 0 0 0 0 0 0 0 0 0 0 0 0 0 0 0 0 0 0 0 0 0 0 0 0 0 0 2 0 4 0 0 1 0 0 0 0 0 2 14 2 8
0 0 0 0 0 0 0 0 0 0 0 0 0 0 0 0 0 0 0 0 0 0 0 0 0 0 0 0 0 1 3 0 0 1 0 0 0 0 0 0 2 11 11
0 0 0 0 0 0 0 0 0 0 0 0 0 0 0 0 0 0 0 0 0 0 0 0 0 0 0 0 0 0 0 0 0 0 0 0 0 0 0 0 0 2 3
0 0 0 0 0 0 0 0 0 0 0 0 0 0 0 0 0 0 0 0 0 0 0 0 0 0 0 0 0 0 0 0 0 0 0 0 0 0 0 0 0 0 0
CIN
0 0 0 0 0 0 0 0 0 0 0 0 0 0 0 0 0 0 0 0 0 0 0 0 0 0 0 0 0 0 0 0 0 0 0 0 0 0 0 0 0 0 0
0 0 0 0 0 0 0 0 0 0 0 0 0 0 0 0 0 0 0 0 0 0 0 0 0 0 0 0 0 0 0 0 0 0 0 0 0 0 0 0 0 0 0
0 0 0 0 0 0 0 0 0 0 0 0 0 0 0 0 0 0 0 0 0 0 0 0 0 0 0 0 0 0 0 0 0 0 0 0 0 0 0 0 0 0 0
0 0 0 0 0 0 0 0 0 0 0 0 0 0 0 0 0 0 0 0 0 0 0 0 0 0 0 0 0 0 0 0 0 0 0 0 0 0 0 0 0 0 0
0 0 0 0 0 0 0 0 0 0 0 0 0 0 0 0 0 0 0 0 0 0 0 0 0 0 0 0 0 0 0 0 0 0 0 0 0 0 0 0 0 0 0
0 0 0 0 0 0 0 0 0 0 0 0 0 0 0 0 0 0 0 0 0 0 0 0 0 0 0 0 0 0 0 0 0 0 0 0 0 0 0 0 0 0 0
0 0 0 0 0 0 0 0 0 0 0 0 0 0 0 0 0 0 0 0 0 0 0 0 0 0 0 0 0 0 0 0 0 0 0 0 0 0 0 0 0 0 0
0 0 0 0 0 0 0 0 0 0 0 0 0 0 0 0 0 0 0 0 0 0 0 0 0 0 0 0 0 0 0 0 0 0 0 0 0 0 0 0 0 0 0
0 0 0 0 0 0 0 0 0 0 0 0 0 0 0 0 0 0 0 0 0 0 0 0 0 0 0 0 0 0 0 0 0 0 0 0 0 0 0 0 0 0 0
0 0 0 0 0 0 0 0 0 0 0 0 0 0 0 0 0 0 0 0 0 0 0 0 0 0 0 0 0 0 0 0 0 0 0 0 0 0 0 0 0 0 0
0 0 0 0 0 0 0 0 0 0 0 0 0 0 0 0 0 0 0 0 0 0 0 0 0 0 0 0 0 0 0 0 0 0 0 0 0 0 0 0 0 0 0
0 0 0 0 0 0 0 0 0 0 0 0 0 0 0 0 0 0 0 0 0 0 0 0 0 0 0 0 0 0 0 0 0 0 0 0 0 0 0 0 0 0 0
0 0 0 0 0 0 0 0 0 0 0 0 0 0 0 0 0 0 0 0 0 0 0 0 0 0 0 0 0 0 0 0 0 0 0 0 0 0 0 0 0 0 0
0 0 0 0 0 0 0 0 0 0 0 0 0 0 0 0 0 0 0 0 0 0 0 0 0 0 0 0 0 0 0 0 0 0 0 0 -1 0 0 0 0 0 0
0 0 0 0 0 0 0 0 0 0 0 0 0 0 0 0 0 0 0 0 0 0 0 0 0 0 0 0 0 0 0 0 0 0 0 0 0 0 0 0 0 0 0
0 0 0 0 0 0 0 0 0 0 0 0 0 0 0 0 0 0 0 0 0 0 0 0 0 0 0 0 0 0 0 0 0 0 0 0 0 -1 0 0 0 0 0
0 0 0 0 0 0 0 0 0 0 0 0 0 0 0 0 0 0 0 0 0 0 0 0 0 0 0 0 0 0 0 0 0 0 0 0 -2 -3 -1 0 0 0 0
0 0 0 0 0 0 0 0 0 0 0 0 0 0 0 0 0 0 0 0 0 0 0 0 0 0 0 0 0 0 0 0 0 0 0 0 0 0 0 0 0 0 0
0 0 0 0 0 0 0 0 0 0 0 0 0 0 0 0 0 0 0 0 0 0 0 0 0 0 0 0 0 0 0 0 0 -5 -1 0 0 0 0 0 0 0 0
0 0 0 0 0 0 0 0 0 0 0 0 0 0 0 0 0 0 0 0 0 0 0 0 0 0 0 0 0 0 0 0 0 -19 0 0 0 0 0 0 0 0 0
0 0 0 0 0 0 0 0 0 0 0 0 0 0 0 0 0 0 0 0 0 0 0 0 0 0 0 0 0 0 0 -13 0 0 0 0 0 0 0 0 -1 0 0
0 0 0 0 0 0 0 0 0 0 0 0 0 0 0 0 0 0 0 0 0 0 0 0 0 0 0 0 0 -1 0 -1 0 0 0 0 0 0 0 0 0 0 0
0 0 0 0 0 0 0 0 0 0 0 0 0 0 0 0 0 0 0 0 0 0 0 0 0 0 0 0 -3 0 -2 0 0 0 0 0 0 0 0 -2 0 0 0
0 0 0 0 0 0 0 0 0 0 0 0 0 0 0 0 0 0 0 0 0 0 0 0 -1 0 0 0 0 0 0 0 0 0 0 0 0 0 0 0 -10 -3 -2
0 0 0 0 0 0 0 0 0 0 0 0 0 0 0 0 0 0 0 0 0 0 0 -12 -11 -11 0 0 0 0 -1 0 0 0 0 0 0 0 0 0 0 -8 -13
0 0 0 0 0 0 0 0 0 0 0 0 0 0 0 0 0 0 0 0 0 0 0 0 0 0 0 0 0 0 0 0 0 0 0 0 0 0 0 0 0 0 0
Wind_Speed
4 3 3 4 4 3 5 7 5 5 7 9 7 10 9 8 7 4 3 16 16 17 18 18 19 20 19 19 20 20 19 18 19 18 18 19 18 18 18 18 19 19 19
4 4 3 4 4 3 4 5 6 6 6 7 8 8 8 6 6 6 4 6 15 17 17 18 17 18 18 18 18 19 19 17 19 18 18 18 18 18 18 18 19 19 19
5 5 4 4 2 3 6 6 6 5 6 6 7 6 5 5 5 5 5 4 6 13 15 15 16 16 17 19 19 19 18 18 17 17 18 17 17 18 18 19 19 19 19
5 5 4 3 2 4 5 5 5 5 5 6 4 4 4 4 5 4 5 4 4 3 9 16 15 16 18 19 19 19 19 18 18 19 18 17 18 18 18 19 19 20 20
5 5 4 3 3 5 5 7 3 5 6 5 5 5 4 4 3 3 5 5 5 4 3 12 14 17 17 18 18 19 19 18 17 19 17 17 18 19 20 19 19 19 20
5 5 3 5 3 5 4 4 6 4 4 5 6 6 4 4 3 4 5 4 4 5 5 6 6 9 17 18 18 18 18 17 18 18 18 18 19 19 20 20 20 20 21
6 4 4 4 4 4 5 4 3 7 4 4 5 4 4 6 5 4 4 4 5 5 6 6 5 4 6 15 19 18 18 18 18 17 17 18 18 19 20 19 19 20 21
5 5 5 4 2 6 5 4 2 4 3 2 4 4 3 4 5 5 5 5 6 6 7 7 6 5 4 3 12 18 18 18 18 17 17 18 19 19 19 21 21 21 22
6 5 4 4 3 3 5 3 3 4 4 4 6 2 3 3 1 4 7 5 6 6 5 5 5 5 4 4 7 9 18 16 17 18 19 18 19 21 21 21 22 22 22
6 6 4 4 5 3 5 5 4 3 4 5 3 4 4 4 4 3 3 4 6 7 5 5 5 5 4 4 10 14 17 17 16 17 17 18 20 20 21 22 22 23 23
6 5 5 6 6 4 6 6 6 6 3 4 3 1 5 4 4 3 3 1 4 4 4 4 3 4 6 5 5 9 16 16 15 17 18 18 20 20 21 21 22 24 24
4 5 6 5 5 5 6 6 6 8 6 7 5 4 2 2 1 3 4 1 2 1 1 3 5 5 5 5 11 14 15 15 16 17 18 18 18 19 20 22 23 24 23
2 4 4 5 4 5 6 6 7 7 6 7 6 4 4 4 2 2 4 1 2 1 2 2 4 5 5 4 6 14 15 16 17 18 18 18 17 18 20 21 23 22 22
4 3 5 6 6 6 6 7 5 5 6 6 8 6 5 4 4 2 3 4 1 2 3 3 2 5 4 4 11 17 8 17 17 19 20 17 15 17 19 21 21 21 22
4 5 6 6 6 6 7 6 5 5 7 6 6 7 5 4 4 4 3 2 3 2 1 2 4 5 4 4 10 7 7 16 16 18 18 16 15 17 18 20 21 21 22
6 6 6 6 6 6 6 6 5 5 7 4 5 7 5 3 5 4 4 4 3 3 2 0 1 2 4 6 9 7 7 13 15 16 15 16 15 16 18 20 20 21 22
7 7 6 6 6 6 6 6 6 6 7 7 6 6 6 5 4 4 4 4 4 2 3 2 1 2 5 5 7 7 6 5 6 15 15 15 13 14 16 18 19 21 23
6 7 7 6 6 6 6 7 6 6 7 7 6 6 6 4 5 4 4 4 4 3 3 2 2 3 3 4 5 6 5 6 6 12 14 14 12 14 15 17 18 20 21
7 6 6 7 6 6 6 6 6 6 6 6 6 6 6 6 5 2 3 4 2 2 3 2 2 1 3 1 4 4 5 6 5 13 11 13 12 14 16 17 18 19 20
8 7 6 6 7 6 6 6 6 6 6 6 6 6 6 6 5 4 3 3 2 3 3 3 2 2 2 3 2 3 6 4 2 5 8 7 10 12 15 15 18 19 19
8 7 7 6 6 6 5 7 6 6 7 6 5 5 5 6 7 4 3 2 3 3 2 2 2 2 3 3 7 7 6 5 3 3 4 3 4 4 5 9 13 18 20
8 7 7 7 7 4 10 10 8 6 6 7 6 5 5 7 7 8 9 8 5 3 2 1 2 2 3 2 6 4 4 5 4 4 6 4 3 3 4 5 15 17 19
8 8 7 7 7 6 10 11 10 6 6 6 6 6 5 3 6 5 9 10 8 7 3 2 1 2 3 3 4 5 4 5 2 3 4 4 3 3 2 4 13 17 18
10 8 7 7 6 5 9 11 10 7 6 6 6 6 6 5 4 6 5 5 3 2 2 1 1 2 1 4 2 2 3 5 2 1 4 3 3 3 3 3 10 14 15
6 6 7 8 7 6 9 10 9 6 6 6 5 6 6 6 6 10 6 5 3 0 4 6 5 6 6 7 5 3 3 6 3 2 2 2 3 3 2 3 4 12 13
9 8 7 8 9 8 11 11 8 4 5 4 3 4 8 7 8 9 5 5 4 2 1 2 3 4 5 4 7 3 2 4 3 3 3 5 3 3 4 2 3 3 5
Wind_Direction
93 83 74 78 67 79 108 106 98 96 91 93 88 94 93 88 77 69 65 82 78 72 69 71 71 64 60 53 49 43 32 29 28 27 25 17 17 14 11 7 3 0 356
94 94 74 59 61 68 80 99 108 105 97 104 98 96 97 92 91 84 64 74 85 80 73 70 66 61 52 47 42 40 32 25 30 25 17 14 13 12 9 5 1 360 356
100 99 87 75 68 87 106 89 79 76 96 94 94 90 94 94 92 95 86 69 77 86 82 73 63 61 48 41 35 30 29 21 25 15 16 13 12 11 6 2 359 358 355
105 101 100 64 76 96 106 99 101 87 85 96 103 94 92 94 96 94 91 81 65 57 79 65 65 60 49 37 28 22 21 17 13 15 18 14 12 7 3 359 357 357 354
65 90 82 79 66 87 106 119 81 110 111 89 86 78 60 66 87 114 106 92 83 60 43 56 68 60 48 36 25 21 19 15 15 22 16 13 6 3 2 2 357 356 353
52 65 70 82 78 86 79 89 110 61 97 114 97 74 60 44 42 59 76 80 65 52 48 53 43 51 45 31 26 21 19 17 16 20 13 8 4 5 1 358 356 354 350
59 46 55 73 52 88 112 98 95 101 65 115 99 75 59 47 50 51 56 78 69 66 61 64 64 53 27 32 25 25 22 16 12 16 12 6 7 4 359 358 354 352 349
63 62 41 37 60 108 80 95 118 111 88 3 141 113 118 32 18 24 29 60 59 69 62 63 63 52 28 4 28 24 21 15 3 10 6 6 359 3 358 358 358 354 354
66 69 75 83 56 36 101 82 81 125 132 37 39 119 120 132 156 1 23 43 70 71 62 50 51 38 24 16 21 17 20 14 2 6 3 2 3 357 1 1 359 357 357
73 62 51 56 76 61 83 84 76 81 111 133 76 35 57 136 163 145 25 31 60 69 53 43 36 19 14 13 20 13 20 14 4 4 6 4 2 360 4 0 1 359 354
69 70 61 57 58 69 70 79 71 69 63 109 107 115 49 62 50 128 137 118 49 22 46 38 25 24 15 12 1 7 16 13 8 5 4 2 2 3 8 4 1 358 353
71 71 70 73 72 78 83 80 79 74 82 78 73 60 102 116 64 99 105 130 147 206 41 21 32 27 28 9 12 10 10 11 14 12 8 4 4 5 12 5 1 357 358
76 83 87 78 70 74 74 77 76 75 65 81 80 74 62 62 87 83 86 116 142 205 289 50 25 34 24 350 6 16 9 14 18 13 11 8 12 17 14 2 2 1 1
126 126 109 98 87 83 77 74 77 83 83 80 81 73 72 50 49 58 118 136 55 8 31 333 26 29 1 351 7 11 352 10 15 12 14 12 26 25 10 6 6 4 6
127 132 116 107 97 91 91 90 88 85 82 82 84 79 74 52 54 54 60 88 137 142 312 329 3 18 342 345 5 358 345 11 13 11 16 17 32 23 15 11 10 8 11
128 129 122 115 111 109 110 101 90 88 93 81 88 84 69 57 61 49 54 48 52 121 135 280 359 328 343 352 359 358 351 8 4 9 20 20 31 27 18 14 12 11 13
144 138 135 132 132 127 119 105 104 103 97 96 83 90 82 79 69 59 55 52 45 62 100 320 323 332 353 350 346 350 356 359 346 358 25 21 35 28 18 16 16 15 17
154 147 142 140 139 131 132 125 120 122 117 109 108 99 97 90 76 74 74 77 70 38 117 40 303 340 330 333 326 343 355 1 337 1 24 18 14 28 21 19 20 18 21
154 147 140 142 143 144 138 131 130 129 126 124 122 113 118 108 93 90 90 82 64 68 67 92 357 298 279 322 334 344 353 342 335 9 10 21 14 21 23 21 22 20 19
149 152 155 151 149 150 143 139 132 132 130 125 122 120 126 115 120 118 96 104 99 94 61 57 350 299 313 328 355 348 10 336 324 353 352 7 17 24 26 24 18 21 16
158 157 152 156 154 151 155 147 141 142 134 130 133 131 125 124 101 114 141 158 122 91 68 46 336 343 330 347 4 360 358 330 326 11 333 337 355 358 6 9 22 18 15
156 152 159 159 162 165 161 152 146 151 149 144 151 138 136 102 82 87 82 100 119 113 96 62 333 345 322 346 0 345 328 352 346 351 347 314 19 347 347 10 30 19 16
149 163 163 159 171 180 169 158 151 153 146 153 153 150 147 116 112 106 83 80 77 86 127 161 22 330 327 313 338 353 334 349 281 335 5 303 343 330 344 356 21 17 19
164 164 164 166 165 185 171 159 155 153 152 164 164 166 153 150 136 135 107 99 93 80 15 332 61 330 318 332 346 307 330 328 320 283 18 324 325 294 334 337 354 23 24
156 163 164 163 173 183 172 161 147 155 159 168 168 162 153 149 150 150 133 133 121 13 313 47 49 7 15 21 22 359 7 357 346 310 348 340 301 301 333 320 320 16 13
166 163 162 171 181 180 178 176 162 156 157 154 132 147 158 158 160 151 142 149 150 213 349 11 15 358 359 15 18 20 341 351 337 337 304 349 317 331 342 304 310 346 352